ProjectID,Date,Electric Generation,Electric Utility Import,Facility Electric Load
,YYYY-MM-DD,kW,kW,kW
368,2016-07-01,0.0,,0.0
368,2016-07-02,0.0,,0.0
368,2016-07-03,0.0,,0.0
368,2016-07-04,0.0,,0.0
368,2016-07-05,0.0,,0.0
368,2016-07-06,0.0,,0.0
368,2016-07-07,0.0,,0.0
368,2016-07-08,0.0,,0.0
368,2016-07-09,0.0,,0.0
368,2016-07-10,0.0,,0.0
368,2016-07-11,0.0,,0.0
368,2016-07-12,0.0,,0.0
368,2016-07-13,0.0,,0.0
368,2016-07-14,57.605875,,57.605875
368,2016-07-15,89.35666666666667,,89.35666666666667
368,2016-07-16,114.11129166666666,,114.11129166666666
368,2016-07-17,118.39287499999999,,118.39287499999999
368,2016-07-18,93.12554166666666,,93.12554166666666
368,2016-07-19,117.28466666666664,,117.28466666666664
368,2016-07-20,127.09079166666662,,127.09079166666662
368,2016-07-21,122.79245833333334,,122.79245833333334
368,2016-07-22,102.98637499999997,,102.98637499999997
368,2016-07-23,120.67333333333333,,120.67333333333333
368,2016-07-24,119.53758333333333,,119.53758333333333
368,2016-07-25,87.19166666666662,,87.19166666666662
368,2016-07-26,106.6625833333333,,106.6625833333333
368,2016-07-27,120.4450833333333,,120.4450833333333
368,2016-07-28,97.411,,97.411
368,2016-07-29,97.459875,,97.459875
368,2016-07-30,63.78125000000002,,63.78125000000002
368,2016-07-31,30.03379166666667,,30.03379166666667
368,2016-08-01,34.82025000000001,,34.82025000000001
368,2016-08-02,75.22608333333334,,75.22608333333334
368,2016-08-03,121.19891666666666,,121.19891666666666
368,2016-08-04,121.99874999999999,,121.99874999999999
368,2016-08-05,94.01058333333332,,94.01058333333332
368,2016-08-06,82.47495833333333,,82.47495833333333
368,2016-08-07,114.54487499999999,,114.54487499999999
368,2016-08-08,106.99554166666665,,106.99554166666665
368,2016-08-09,114.63433333333332,,114.63433333333332
368,2016-08-10,57.24000000000001,,57.24000000000001
368,2016-08-11,88.7545833333333,,88.7545833333333
368,2016-08-12,88.34825,,88.34825
368,2016-08-13,104.95279166666666,,104.95279166666666
368,2016-08-14,100.09995833333333,,100.09995833333333
368,2016-08-15,109.08600000000001,,109.08600000000001
368,2016-08-16,80.1045,,80.1045
368,2016-08-17,96.60154166666666,,96.60154166666666
368,2016-08-18,101.07,,101.07
368,2016-08-19,98.5124166666667,,98.5124166666667
368,2016-08-20,108.10283333333335,,108.10283333333335
368,2016-08-21,76.16837500000001,,76.16837500000001
368,2016-08-22,107.41116666666666,,107.41116666666666
368,2016-08-23,116.41599999999995,,116.41599999999995
368,2016-08-24,111.75612499999998,,111.75612499999998
368,2016-08-25,80.22099999999999,,80.22099999999999
368,2016-08-26,95.03195833333332,,95.03195833333332
368,2016-08-27,107.77966666666667,,107.77966666666667
368,2016-08-28,108.11516666666667,,108.11516666666667
368,2016-08-29,102.41958333333332,,102.41958333333332
368,2016-08-30,102.44558333333332,,102.44558333333332
368,2016-08-31,50.57708333333333,,50.57708333333333
368,2016-09-01,44.91741666666667,,44.91741666666667
368,2016-09-02,102.30437499999998,,102.30437499999998
368,2016-09-03,76.16966666666669,,76.16966666666669
368,2016-09-04,107.30370833333335,,107.30370833333335
368,2016-09-05,78.87204166666666,,78.87204166666666
368,2016-09-06,48.94766666666667,,48.94766666666667
368,2016-09-07,70.85875,,70.85875
368,2016-09-08,93.854875,,93.854875
368,2016-09-09,63.65729166666668,,63.65729166666668
368,2016-09-10,78.02933333333333,,78.02933333333333
368,2016-09-11,80.5515,,80.5515
368,2016-09-12,106.50670833333335,,106.50670833333335
368,2016-09-13,94.903125,,94.903125
368,2016-09-14,83.8965,,83.8965
368,2016-09-15,107.43633333333334,,107.43633333333334
368,2016-09-16,97.51050000000002,,97.51050000000002
368,2016-09-17,94.80229166666669,,94.80229166666669
368,2016-09-18,33.24745833333334,,33.24745833333334
368,2016-09-19,24.613416666666666,,24.613416666666666
368,2016-09-20,58.18108333333334,,58.18108333333334
368,2016-09-21,83.73391666666669,,83.73391666666669
368,2016-09-22,95.26766666666668,,95.26766666666668
368,2016-09-23,67.93108333333333,,67.93108333333333
368,2016-09-24,87.62195833333334,,87.62195833333334
368,2016-09-25,101.338625,,101.338625
368,2016-09-26,85.28270833333333,,85.28270833333333
368,2016-09-27,70.14791666666669,,70.14791666666669
368,2016-09-28,32.005333333333326,,32.005333333333326
368,2016-09-29,33.4175,,33.4175
368,2016-09-30,17.013166666666663,,17.013166666666663
368,2016-10-01,24.128374999999995,,24.128374999999995
368,2016-10-02,21.29633333333333,,21.29633333333333
368,2016-10-03,57.87712500000001,,57.87712500000001
368,2016-10-04,52.43445833333334,,52.43445833333334
368,2016-10-05,91.77225000000003,,91.77225000000003
368,2016-10-06,89.00462499999999,,89.00462499999999
368,2016-10-07,86.45912500000001,,86.45912500000001
368,2016-10-08,32.672625000000004,,32.672625000000004
368,2016-10-09,20.370624999999993,,20.370624999999993
368,2016-10-10,92.90575000000001,,92.90575000000001
368,2016-10-11,87.49616666666667,,87.49616666666667
368,2016-10-12,62.54500000000001,,62.54500000000001
368,2016-10-13,31.42270833333333,,31.42270833333333
368,2016-10-14,87.76704166666667,,87.76704166666667
368,2016-10-15,84.38170833333336,,84.38170833333336
368,2016-10-16,60.79508333333336,,60.79508333333336
368,2016-10-17,51.231291666666685,,51.231291666666685
368,2016-10-18,72.92070833333334,,72.92070833333334
368,2016-10-19,68.77362500000001,,68.77362500000001
368,2016-10-20,34.172,,34.172
368,2016-10-21,29.7435,,29.7435
368,2016-10-22,15.71825,,15.71825
368,2016-10-23,76.32437500000002,,76.32437500000002
368,2016-10-24,50.71829166666669,,50.71829166666669
368,2016-10-25,41.80616666666666,,41.80616666666666
368,2016-10-26,70.88370833333336,,70.88370833333336
368,2016-10-27,5.116625000000002,,5.116625000000002
368,2016-10-28,27.409666666666666,,27.409666666666666
368,2016-10-29,51.381125000000026,,51.381125000000026
368,2016-10-30,37.65383333333333,,37.65383333333333
368,2016-10-31,74.20791666666669,,74.20791666666669
368,2016-11-01,68.84133333333334,,68.84133333333334
368,2016-11-02,60.14925000000002,,60.14925000000002
368,2016-11-03,22.81391666666666,,22.81391666666666
368,2016-11-04,70.06470833333336,,70.06470833333336
368,2016-11-05,44.13558333333334,,44.13558333333334
368,2016-11-06,63.63558333333335,,63.63558333333335
368,2016-11-07,68.48916666666669,,68.48916666666669
368,2016-11-08,64.6375,,64.6375
368,2016-11-09,12.490374999999993,,12.490374999999993
368,2016-11-10,63.93183333333335,,63.93183333333335
368,2016-11-11,64.58225000000002,,64.58225000000002
368,2016-11-12,65.82579166666669,,65.82579166666669
368,2016-11-13,65.22604166666669,,65.22604166666669
368,2016-11-14,60.039291666666685,,60.039291666666685
368,2016-11-15,5.2266666666666675,,5.2266666666666675
368,2016-11-16,58.403875000000006,,58.403875000000006
368,2016-11-17,50.58350000000002,,50.58350000000002
368,2016-11-18,58.571125000000016,,58.571125000000016
368,2016-11-19,56.50279166666669,,56.50279166666669
368,2016-11-20,0.3797916666666667,,0.3797916666666667
368,2016-11-21,0.4200833333333333,,0.4200833333333333
368,2016-11-22,1.270958333333333,,1.270958333333333
368,2016-11-23,2.602416666666667,,2.602416666666667
368,2016-11-24,1.6395000000000008,,1.6395000000000008
368,2016-11-25,13.190249999999994,,13.190249999999994
368,2016-11-26,22.36208333333333,,22.36208333333333
368,2016-11-27,31.47875,,31.47875
368,2016-11-28,52.804083333333345,,52.804083333333345
368,2016-11-29,3.7300416666666667,,3.7300416666666667
368,2016-11-30,7.322416666666665,,7.322416666666665
368,2016-12-01,19.849708333333332,,19.849708333333332
368,2016-12-02,45.58354166666668,,45.58354166666668
368,2016-12-03,41.37970833333333,,41.37970833333333
368,2016-12-04,49.45720833333334,,49.45720833333334
368,2016-12-05,27.023624999999996,,27.023624999999996
368,2016-12-06,23.317166666666665,,23.317166666666665
368,2016-12-07,9.028875,,9.028875
368,2016-12-08,27.73,,27.73
368,2016-12-09,47.97350000000001,,47.97350000000001
368,2016-12-10,31.9455,,31.9455
368,2016-12-11,16.00020833333333,,16.00020833333333
368,2016-12-12,11.604374999999997,,11.604374999999997
368,2016-12-13,40.38366666666666,,40.38366666666666
368,2016-12-14,49.080250000000014,,49.080250000000014
368,2016-12-15,34.800333333333334,,34.800333333333334
368,2016-12-16,38.20716666666667,,38.20716666666667
368,2016-12-17,0.18858333333333335,,0.18858333333333335
368,2016-12-18,4.485875000000001,,4.485875000000001
368,2016-12-19,46.06666666666667,,46.06666666666667
368,2016-12-20,52.182500000000026,,52.182500000000026
368,2016-12-21,26.446249999999996,,26.446249999999996
368,2016-12-22,35.30616666666666,,35.30616666666666
368,2016-12-23,43.15441666666667,,43.15441666666667
368,2016-12-24,15.57570833333333,,15.57570833333333
368,2016-12-25,51.088750000000026,,51.088750000000026
368,2016-12-26,8.878499999999999,,8.878499999999999
368,2016-12-27,36.388124999999995,,36.388124999999995
368,2016-12-28,25.102375000000006,,25.102375000000006
368,2016-12-29,4.346541666666668,,4.346541666666668
368,2016-12-30,31.548291666666668,,31.548291666666668
368,2016-12-31,15.65845833333333,,15.65845833333333
368,2017-01-01,52.219625000000015,,52.219625000000015
368,2017-01-02,8.72745833333333,,8.72745833333333
368,2017-01-03,6.294624999999996,,6.294624999999996
368,2017-01-04,17.866791666666664,,17.866791666666664
368,2017-01-05,31.658541666666665,,31.658541666666665
368,2017-01-06,38.728125,,38.728125
368,2017-01-07,3.118708333333334,,3.118708333333334
368,2017-01-08,3.0535416666666673,,3.0535416666666673
368,2017-01-09,5.122583333333334,,5.122583333333334
368,2017-01-10,9.38958333333333,,9.38958333333333
368,2017-01-11,35.35704166666667,,35.35704166666667
368,2017-01-12,12.228124999999999,,12.228124999999999
368,2017-01-13,55.22950000000003,,55.22950000000003
368,2017-01-14,24.179958333333328,,24.179958333333328
368,2017-01-15,44.49500000000001,,44.49500000000001
368,2017-01-16,54.6031666666667,,54.6031666666667
368,2017-01-17,5.900083333333331,,5.900083333333331
368,2017-01-18,8.91958333333333,,8.91958333333333
368,2017-01-19,32.76470833333333,,32.76470833333333
368,2017-01-20,14.78283333333333,,14.78283333333333
368,2017-01-21,31.845375000000004,,31.845375000000004
368,2017-01-22,13.810166666666666,,13.810166666666666
368,2017-01-23,6.857083333333331,,6.857083333333331
368,2017-01-24,0.19174999999999998,,0.19174999999999998
368,2017-01-25,2.6447916666666673,,2.6447916666666673
368,2017-01-26,5.59533333333333,,5.59533333333333
368,2017-01-27,9.976874999999998,,9.976874999999998
368,2017-01-28,9.311458333333333,,9.311458333333333
368,2017-01-29,42.73725000000001,,42.73725000000001
368,2017-01-30,57.88950000000002,,57.88950000000002
368,2017-01-31,7.11483333333333,,7.11483333333333
368,2017-02-01,21.221666666666664,,21.221666666666664
368,2017-02-02,51.17470833333334,,51.17470833333334
368,2017-02-03,54.17987500000002,,54.17987500000002
368,2017-02-04,75.40258333333334,,75.40258333333334
368,2017-02-05,30.739833333333333,,30.739833333333333
368,2017-02-06,68.69295833333335,,68.69295833333335
368,2017-02-07,6.526333333333331,,6.526333333333331
368,2017-02-08,59.9704166666667,,59.9704166666667
368,2017-02-09,0.4767916666666667,,0.4767916666666667
368,2017-02-10,7.573124999999998,,7.573124999999998
368,2017-02-11,8.590083333333332,,8.590083333333332
368,2017-02-12,0.147375,,0.147375
368,2017-02-13,0.4104166666666668,,0.4104166666666668
368,2017-02-14,1.413083333333334,,1.413083333333334
368,2017-02-15,4.0185,,4.0185
368,2017-02-16,19.989749999999997,,19.989749999999997
368,2017-02-17,35.850458333333336,,35.850458333333336
368,2017-02-18,51.39875000000001,,51.39875000000001
368,2017-02-19,58.33620833333335,,58.33620833333335
368,2017-02-20,85.58625000000002,,85.58625000000002
368,2017-02-21,60.077125000000024,,60.077125000000024
368,2017-02-22,20.144791666666663,,20.144791666666663
368,2017-02-23,78.70083333333336,,78.70083333333336
368,2017-02-24,76.74250000000002,,76.74250000000002
368,2017-02-25,40.254208333333345,,40.254208333333345
368,2017-02-26,46.785416666666684,,46.785416666666684
368,2017-02-27,67.68775000000001,,67.68775000000001
368,2017-02-28,73.95075000000003,,73.95075000000003
368,2017-03-01,17.975499999999997,,17.975499999999997
368,2017-03-02,84.87008333333335,,84.87008333333335
368,2017-03-03,79.95329166666669,,79.95329166666669
368,2017-03-04,59.53395833333334,,59.53395833333334
368,2017-03-05,100.66558333333336,,100.66558333333336
368,2017-03-06,85.45600000000002,,85.45600000000002
368,2017-03-07,23.536708333333337,,23.536708333333337
368,2017-03-08,78.89733333333335,,78.89733333333335
368,2017-03-09,76.30495833333336,,76.30495833333336
368,2017-03-10,0.711208333333333,,0.711208333333333
368,2017-03-11,2.867291666666667,,2.867291666666667
368,2017-03-12,8.469041666666664,,8.469041666666664
368,2017-03-13,30.946916666666667,,30.946916666666667
368,2017-03-14,0.19700000000000004,,0.19700000000000004
368,2017-03-15,0.4898750000000001,,0.4898750000000001
368,2017-03-16,1.183833333333333,,1.183833333333333
368,2017-03-17,1.4755000000000005,,1.4755000000000005
368,2017-03-18,0.5952916666666667,,0.5952916666666667
368,2017-03-19,2.275000000000001,,2.275000000000001
368,2017-03-20,4.256708333333333,,4.256708333333333
368,2017-03-21,11.531541666666664,,11.531541666666664
368,2017-03-22,33.752874999999996,,33.752874999999996
368,2017-03-23,40.346583333333335,,40.346583333333335
368,2017-03-24,20.573291666666663,,20.573291666666663
368,2017-03-25,23.33883333333333,,23.33883333333333
368,2017-03-26,20.14745833333333,,20.14745833333333
368,2017-03-27,33.405166666666666,,33.405166666666666
368,2017-03-28,13.793291666666663,,13.793291666666663
368,2017-03-29,101.23854166666668,,101.23854166666668
368,2017-03-30,88.95725000000003,,88.95725000000003
368,2017-03-31,9.972958333333331,,9.972958333333331
368,2017-04-01,42.38566666666667,,42.38566666666667
368,2017-04-02,112.37916666666668,,112.37916666666668
368,2017-04-03,84.19554166666668,,84.19554166666668
368,2017-04-04,18.027541666666664,,18.027541666666664
368,2017-04-05,71.84270833333336,,71.84270833333336
368,2017-04-06,9.142166666666666,,9.142166666666666
368,2017-04-07,46.39216666666669,,46.39216666666669
368,2017-04-08,111.487125,,111.487125
368,2017-04-09,115.01845833333336,,115.01845833333336
368,2017-04-10,101.21758333333334,,101.21758333333334
368,2017-04-11,106.18116666666668,,106.18116666666668
368,2017-04-12,52.55362500000001,,52.55362500000001
368,2017-04-13,102.46112500000002,,102.46112500000002
368,2017-04-14,107.98716666666667,,107.98716666666667
368,2017-04-15,85.0836666666667,,85.0836666666667
368,2017-04-16,79.90258333333335,,79.90258333333335
368,2017-04-17,82.86612500000001,,82.86612500000001
368,2017-04-18,120.99637500000001,,120.99637500000001
368,2017-04-19,76.52104166666668,,76.52104166666668
368,2017-04-20,61.07708333333335,,61.07708333333335
368,2017-04-21,26.487166666666667,,26.487166666666667
368,2017-04-22,23.966416666666664,,23.966416666666664
368,2017-04-23,119.74629166666669,,119.74629166666669
368,2017-04-24,54.142083333333346,,54.142083333333346
368,2017-04-25,20.988624999999995,,20.988624999999995
368,2017-04-26,32.92079166666667,,32.92079166666667
368,2017-04-27,49.63179166666669,,49.63179166666669
368,2017-04-28,105.25404166666668,,105.25404166666668
368,2017-04-29,79.17858333333335,,79.17858333333335
368,2017-04-30,40.689,,40.689
368,2017-05-01,52.73975000000001,,52.73975000000001
368,2017-05-02,68.4456666666667,,68.4456666666667
368,2017-05-03,81.62775,,81.62775
368,2017-05-04,113.38170833333335,,113.38170833333335
368,2017-05-05,21.328416666666662,,21.328416666666662
368,2017-05-06,47.03016666666668,,47.03016666666668
368,2017-05-07,52.48975000000001,,52.48975000000001
368,2017-05-08,80.43000000000002,,80.43000000000002
368,2017-05-09,92.64608333333335,,92.64608333333335
368,2017-05-10,93.51850000000002,,93.51850000000002
368,2017-05-11,107.84400000000001,,107.84400000000001
368,2017-05-12,109.07833333333333,,109.07833333333333
368,2017-05-13,18.407791666666665,,18.407791666666665
368,2017-05-14,88.51054166666667,,88.51054166666667
368,2017-05-15,81.23725000000002,,81.23725000000002
368,2017-05-16,105.43379166666669,,105.43379166666669
368,2017-05-17,121.01983333333335,,121.01983333333335
368,2017-05-18,118.25933333333336,,118.25933333333336
368,2017-05-19,117.62391666666669,,117.62391666666669
368,2017-05-20,72.47412500000002,,72.47412500000002
368,2017-05-21,120.63954166666667,,120.63954166666667
368,2017-05-22,23.304833333333335,,23.304833333333335
368,2017-05-23,72.14345833333336,,72.14345833333336
368,2017-05-24,88.13816666666668,,88.13816666666668
368,2017-05-25,24.346583333333342,,24.346583333333342
368,2017-05-26,78.40645833333336,,78.40645833333336
368,2017-05-27,76.2215,,76.2215
368,2017-05-28,85.77875000000002,,85.77875000000002
368,2017-05-29,24.453458333333334,,24.453458333333334
368,2017-05-30,29.802333333333333,,29.802333333333333
368,2017-05-31,87.66166666666668,,87.66166666666668
368,2017-06-01,113.76054166666667,,113.76054166666667
368,2017-06-02,109.18254166666668,,109.18254166666668
368,2017-06-03,108.62520833333336,,108.62520833333336
368,2017-06-04,52.89862500000002,,52.89862500000002
368,2017-06-05,60.83879166666669,,60.83879166666669
368,2017-06-06,34.457208333333334,,34.457208333333334
368,2017-06-07,105.12133333333337,,105.12133333333337
368,2017-06-08,101.48200000000003,,101.48200000000003
368,2017-06-09,109.90904166666668,,109.90904166666668
368,2017-06-10,98.83875000000002,,98.83875000000002
368,2017-06-11,126.01841666666668,,126.01841666666668
368,2017-06-12,125.40770833333335,,125.40770833333335
368,2017-06-13,118.01450000000001,,118.01450000000001
368,2017-06-14,119.76704166666667,,119.76704166666667
368,2017-06-15,81.62912500000003,,81.62912500000003
368,2017-06-16,41.26195833333334,,41.26195833333334
368,2017-06-17,44.763208333333345,,44.763208333333345
368,2017-06-18,81.88166666666667,,81.88166666666667
368,2017-06-19,69.07433333333336,,69.07433333333336
368,2017-06-20,128.55216666666666,,128.55216666666666
368,2017-06-21,102.79704166666669,,102.79704166666669
368,2017-06-22,123.0822916666667,,123.0822916666667
368,2017-06-23,67.12258333333334,,67.12258333333334
368,2017-06-24,116.54575000000001,,116.54575000000001
368,2017-06-25,108.48975000000002,,108.48975000000002
368,2017-06-26,117.46633333333334,,117.46633333333334
368,2017-06-27,99.72162500000002,,99.72162500000002
368,2017-06-28,121.97158333333336,,121.97158333333336
368,2017-06-29,107.15775000000002,,107.15775000000002
368,2017-06-30,89.55608333333333,,89.55608333333333
368,2017-07-01,72.1851666666667,,72.1851666666667
368,2017-07-02,117.16950000000001,,117.16950000000001
368,2017-07-03,112.05358333333335,,112.05358333333335
368,2017-07-04,122.53145833333333,,122.53145833333333
368,2017-07-05,120.34266666666667,,120.34266666666667
368,2017-07-06,82.27887500000003,,82.27887500000003
368,2017-07-07,61.99237500000001,,61.99237500000001
368,2017-07-08,95.01454166666669,,95.01454166666669
368,2017-07-09,129.47287500000002,,129.47287500000002
368,2017-07-10,103.9586666666667,,103.9586666666667
368,2017-07-11,80.6644166666667,,80.6644166666667
368,2017-07-12,84.60445833333337,,84.60445833333337
368,2017-07-13,62.60966666666669,,62.60966666666669
368,2017-07-14,24.284083333333328,,24.284083333333328
368,2017-07-15,96.3986666666667,,96.3986666666667
368,2017-07-16,116.81537500000002,,116.81537500000002
368,2017-07-17,110.80500000000002,,110.80500000000002
368,2017-07-18,92.97425000000003,,92.97425000000003
368,2017-07-19,123.8336666666667,,123.8336666666667
368,2017-07-20,105.40654166666668,,105.40654166666668
368,2017-07-21,121.06283333333336,,121.06283333333336
368,2017-07-22,88.29187500000002,,88.29187500000002
368,2017-07-23,69.15133333333335,,69.15133333333335
368,2017-07-24,40.96129166666666,,40.96129166666666
368,2017-07-25,30.922166666666666,,30.922166666666666
368,2017-07-26,96.86750000000002,,96.86750000000002
368,2017-07-27,38.37795833333333,,38.37795833333333
368,2017-07-28,83.47945833333335,,83.47945833333335
368,2017-07-29,97.75037500000002,,97.75037500000002
368,2017-07-30,125.50541666666669,,125.50541666666669
368,2017-07-31,116.56537500000002,,116.56537500000002
368,2017-08-01,54.87787500000004,,54.87787500000004
368,2017-08-02,0.133,,0.133
368,2017-08-03,0.046958333333333324,,0.046958333333333324
368,2017-08-04,0.0,,0.0
368,2017-08-05,0.0,,0.0
368,2017-08-06,0.0,,0.0
368,2017-08-07,0.0,,0.0
368,2017-08-08,0.0,,0.0
368,2017-08-09,0.0,,0.0
368,2017-08-10,0.0,,0.0
368,2017-08-11,0.0,,0.0
368,2017-08-12,0.0,,0.0
368,2017-08-13,0.0,,0.0
368,2017-08-14,0.0,,0.0
368,2017-08-15,0.0,,0.0
368,2017-08-16,0.0,,0.0
368,2017-08-17,0.0,,0.0
368,2017-08-18,0.0,,0.0
368,2017-08-19,0.0,,0.0
368,2017-08-20,0.0,,0.0
368,2017-08-21,0.0,,0.0
368,2017-08-22,0.0,,0.0
368,2017-08-23,0.0,,0.0
368,2017-08-24,0.0,,0.0
368,2017-08-25,0.0,,0.0
368,2017-08-26,0.0,,0.0
368,2017-08-27,0.0,,0.0
368,2017-08-28,0.0,,0.0
368,2017-08-29,0.0,,0.0
368,2017-08-30,0.0,,0.0
368,2017-08-31,0.0,,0.0
368,2017-09-01,0.0,,0.0
368,2017-09-02,0.0,,0.0
368,2017-09-03,0.0,,0.0
368,2017-09-04,0.0,,0.0
368,2017-09-05,0.0,,0.0
368,2017-09-06,0.0,,0.0
368,2017-09-07,0.0,,0.0
368,2017-09-08,0.0,,0.0
368,2017-09-09,0.0,,0.0
368,2017-09-10,0.0,,0.0
368,2017-09-11,0.0,,0.0
368,2017-09-12,0.0,,0.0
368,2017-09-13,0.0,,0.0
368,2017-09-14,28.89083333333333,,28.89083333333333
368,2017-09-15,63.750333333333366,,63.750333333333366
368,2017-09-16,78.59150000000004,,78.59150000000004
368,2017-09-17,69.93783333333336,,69.93783333333336
368,2017-09-18,84.29458333333336,,84.29458333333336
368,2017-09-19,58.820625000000014,,58.820625000000014
368,2017-09-20,40.8285,,40.8285
368,2017-09-21,62.953458333333366,,62.953458333333366
368,2017-09-22,93.77633333333335,,93.77633333333335
368,2017-09-23,94.83108333333337,,94.83108333333337
368,2017-09-24,89.74775000000004,,89.74775000000004
368,2017-09-25,80.55758333333335,,80.55758333333335
368,2017-09-26,80.97950000000003,,80.97950000000003
368,2017-09-27,78.1826666666667,,78.1826666666667
368,2017-09-28,96.29979166666669,,96.29979166666669
368,2017-09-29,55.625333333333366,,55.625333333333366
368,2017-09-30,27.75295833333333,,27.75295833333333
368,2017-10-01,93.12012500000003,,93.12012500000003
368,2017-10-02,94.00287500000002,,94.00287500000002
368,2017-10-03,85.34670833333337,,85.34670833333337
368,2017-10-04,88.37004166666668,,88.37004166666668
368,2017-10-05,55.909166666666685,,55.909166666666685
368,2017-10-06,74.02633333333335,,74.02633333333335
368,2017-10-07,62.72683333333336,,62.72683333333336
368,2017-10-08,28.836249999999996,,28.836249999999996
368,2017-10-09,19.19820833333333,,19.19820833333333
368,2017-10-10,68.86229166666669,,68.86229166666669
368,2017-10-11,38.7945,,38.7945
368,2017-10-12,61.604458333333355,,61.604458333333355
368,2017-10-13,58.20091666666669,,58.20091666666669
368,2017-10-14,26.984624999999998,,26.984624999999998
368,2017-10-15,46.34925000000002,,46.34925000000002
368,2017-10-16,38.58108333333333,,38.58108333333333
368,2017-10-17,82.97683333333335,,82.97683333333335
368,2017-10-18,78.2711666666667,,78.2711666666667
368,2017-10-19,79.21650000000004,,79.21650000000004
368,2017-10-20,78.28670833333335,,78.28670833333335
368,2017-10-21,72.22950000000003,,72.22950000000003
368,2017-10-22,68.85966666666668,,68.85966666666668
368,2017-10-23,23.737333333333325,,23.737333333333325
368,2017-10-24,14.390916666666664,,14.390916666666664
368,2017-10-25,39.896166666666666,,39.896166666666666
368,2017-10-26,18.604499999999998,,18.604499999999998
368,2017-10-27,72.76600000000003,,72.76600000000003